Weather History for Kahului, HI

Change the Weather History Date:

Friday, November 2, 2012

  Actual Average Record
Temperature  
Mean Temperature 73 °F 77 °F  
Max Temperature 85 °F 86 °F 93 °F (1950)
Min Temperature 61 °F 69 °F 59 °F (1953)
Degree Days  
Heating Degree Days 0 0  
Month to date heating degree days 0 0  
Since 1 July heating degree days 12 0  
Cooling Degree Days 8 12  
Month to date cooling degree days 17 24  
Year to date cooling degree days 3359 3400  
Growing Degree Days 22 (Base 50)    
Moisture  
Dew Point 66 °F    
Average Humidity 76    
Maximum Humidity 100    
Minimum Humidity 51    
Precipitation  
Precipitation T in 0.05 in 2.73 in (2006)
Month to date precipitation T 0.10  
Year to date precipitation 4.71 12.38  
Snow  
Snow 0.00 in - - ()
Month to date snowfall 0.0  
Since 1 July snowfall 0.0  
Since 1 September snowfall 0.0  
Snow Depth 0.00 in    
Sea Level Pressure  
Sea Level Pressure 29.97 in    
Wind  
Wind Speed 7 mph (East)    
Max Wind Speed 20 mph    
Max Gust Speed 23 mph    
Visibility 10 miles    
Events Rain    
T = Trace of Precipitation, MM = Missing Value Source: NWS Daily Summary

Daily Weather History Graph

Daily Weather History Graph

Search for Another Location

Airport:

Trip Planner

Search our weather history database for the weather conditions in past years. The results will help you decide how hot, cold, wet, or windy it might be!

Date:

Astronomy

Nov. 02, 2012 Rise Set
Actual Time 6:29 AM HST 5:49 PM HST
Civil Twilight 6:06 AM HST 6:12 PM HST
Nautical Twilight 5:39 AM HST 6:38 PM HST
Astronomical Twilight 5:13 AM HST 7:04 PM HST
Moon 8:59 PM HST (11/2) 9:43 AM HST (11/2)
Length of Visible Light 12h 05m
Length of Day
11h 20m
Waning Gibbous, 86% of the Moon is Illuminated
Nov 2
Waning Gibbous
Nov 6
Last Quarter
Nov 13
New
Nov 20
First Quarter
Nov 28
Full

Hourly Weather History & Observations

Time (HST) Temp. Heat Index Dew Point Humidity Pressure Visibility Wind Dir Wind Speed Gust Speed Precip Events Conditions
12:54 AM 64.0 °F - 63.0 °F 96% 30.01 in 10.0 mi Calm Calm - N/A   Clear
1:54 AM 63.0 °F - 61.0 °F 93% 30.00 in 10.0 mi South 3.5 mph - N/A   Clear
2:54 AM 61.0 °F - 61.0 °F 100% 29.99 in 10.0 mi SSE 4.6 mph - N/A   Clear
3:54 AM 62.1 °F - 61.0 °F 96% 29.99 in 10.0 mi South 3.5 mph - N/A   Clear
4:54 AM 63.0 °F - 62.1 °F 97% 29.98 in 10.0 mi SSE 5.8 mph - N/A   Clear
5:54 AM 63.0 °F - 62.1 °F 97% 29.99 in 10.0 mi SE 5.8 mph - N/A   Clear
6:54 AM 64.0 °F - 63.0 °F 96% 29.99 in 10.0 mi SE 5.8 mph - N/A   Clear
7:54 AM 72.0 °F - 66.0 °F 81% 30.00 in 10.0 mi SE 3.5 mph - N/A   Partly Cloudy
8:54 AM 79.0 °F - 68.0 °F 69% 30.01 in 10.0 mi NNE 4.6 mph - 0.00 in   Clear
9:54 AM 81.0 °F 83.8 °F 68.0 °F 65% 30.01 in 10.0 mi NNW 5.8 mph - N/A   Partly Cloudy
10:54 AM 84.0 °F 85.8 °F 64.9 °F 53% 29.98 in 10.0 mi NNE 13.8 mph - N/A   Partly Cloudy
11:54 AM 84.9 °F 88.8 °F 69.1 °F 59% 29.95 in 10.0 mi NNE 13.8 mph 20.7 mph N/A   Partly Cloudy
12:54 PM 80.1 °F 83.6 °F 71.1 °F 74% 29.92 in 10.0 mi NE 17.3 mph 21.9 mph N/A   Scattered Clouds
1:54 PM 81.0 °F 84.4 °F 70.0 °F 69% 29.91 in 10.0 mi NE 15.0 mph 21.9 mph N/A   Scattered Clouds
2:54 PM 81.0 °F 84.1 °F 69.1 °F 67% 29.89 in 10.0 mi NE 10.4 mph - N/A   Scattered Clouds
3:54 PM 81.0 °F 83.8 °F 68.0 °F 65% 29.88 in 10.0 mi NW 6.9 mph - 0.00 in Rain Light Rain
4:54 PM 80.1 °F 82.9 °F 69.1 °F 69% 29.89 in 10.0 mi West 6.9 mph - 0.00 in   Partly Cloudy
5:54 PM 77.0 °F - 69.1 °F 76% 29.91 in 10.0 mi ENE 4.6 mph - N/A   Partly Cloudy
6:54 PM 75.9 °F - 68.0 °F 76% 29.94 in 10.0 mi Calm Calm - N/A   Partly Cloudy
7:54 PM 72.0 °F - 68.0 °F 87% 29.97 in 10.0 mi Calm Calm - N/A   Scattered Clouds
8:54 PM 70.0 °F - 68.0 °F 93% 29.99 in 10.0 mi WSW 3.5 mph - N/A   Clear
9:54 PM 69.1 °F - 66.9 °F 93% 30.00 in 10.0 mi Calm Calm - N/A   Partly Cloudy
10:54 PM 68.0 °F - 66.9 °F 96% 30.00 in 10.0 mi SE 4.6 mph - N/A   Clear
11:54 PM 66.9 °F - 66.0 °F 97% 29.99 in 10.0 mi SSE 4.6 mph - N/A   Clear